Regional Weather Roundup
Issued by NWS Charleston, WV

Home | Current Version | Previous Version | Text Only | Print | Product List | Glossary Off
Versions: 1 2 3 4 5 6 7 8 9 10 11 12 13 14 15 16 17 18 19 20 21 22 23 24 25 26 27 28 29 30 31 32 33 34 35 36 37 38 39 40 41 42 43 44 45 46 47 48 49 50

000
ASUS41 KRLX 011110
RWRRLX
West Virginia Regional Weather Roundup
National Weather Service Charleston WV
700 AM EDT SAT AUG 01 2015

Note: "fair" indicates few or no clouds below 12,000 feet with no
significant weather and/or obstructions to visibility.

WVZ003-011200-
Northern Panhandle of West Virginia

CITY           SKY/WX    TMP DP  RH WIND       PRES   REMARKS
WHEELING       PTCLDY    66  59  78 W6        29.93R
$$

WVZ009-011200-
Northwest West Virginia

CITY           SKY/WX    TMP DP  RH WIND       PRES   REMARKS
PARKERSBURG    PTCLDY    64  61  90 CALM      29.97R
$$

WVZ006-011200-
Western West Virginia

CITY           SKY/WX    TMP DP  RH WIND       PRES   REMARKS
HUNTINGTON     CLEAR     62  61  96 CALM      29.98R
$$

WVZ015-011200-
West Central West Virginia

CITY           SKY/WX    TMP DP  RH WIND       PRES   REMARKS
CHARLESTON     PTCLDY    65  62  90 SW3       29.98R
$$

WVZ022-031-011200-
North Central West Virginia

CITY           SKY/WX    TMP DP  RH WIND       PRES   REMARKS
CLARKSBURG     MOCLDY    68  62  81 CALM      29.95R
MORGANTOWN     CLOUDY    70  59  68 S3        29.95R
$$

WVZ025-035-042-045-011200-
Southern West Virginia

CITY           SKY/WX    TMP DP  RH WIND       PRES   REMARKS
BECKLEY        CLEAR     61  56  83 SW6       30.05S
LOGAN            N/A     63  61  94 CALM      29.98S
BLUEFIELD      CLEAR     62  55  77 W7        30.08R
LEWISBURG      CLEAR     59  56  89 CALM      30.03S
$$

WVZ047-011200-
Northern Mountains of West Virginia

CITY           SKY/WX    TMP DP  RH WIND       PRES   REMARKS
ELKINS         MOCLDY    62  58  86 E3        29.99S
$$

WVZ052-011200-
Eastern Panhandle of West Virginia

CITY           SKY/WX    TMP DP  RH WIND       PRES   REMARKS
MARTINSBURG    PTCLDY    65  59  81 S6        29.89R
PETERSBURG     CLEAR    N/A N/A N/A CALM      29.94R
$$


USA.gov is the U.S. government's official web portal to all federal, state and local government web resources and services.